GW3385 Weather Reports


time (UTC)temp
F
wind
direction
speed
knots
gust
knots
rain 1hr
in
rain 24hr
in
rain mn
in
humidity
%
barometer
mb
20260505185557 62 261 4.3 11.3 0.00 0.00 0.00 65 1013.9
20260505185057 61 188 6.1 11.3 0.00 0.00 0.00 66 1013.8
20260505184558 61 227 5.2 11.3 0.00 0.00 0.00 67 1013.7
20260505184056 61 168 6.1 11.3 0.00 0.00 0.00 68 1013.8
20260505183558 61 226 3.5 11.3 0.00 0.00 0.00 67 1013.8
20260505183058 61 161 4.3 9.6 0.00 0.00 0.00 68 1013.7
20260505182555 60 151 5.2 9.6 0.00 0.00 0.00 69 1013.9
20260505182052 60 302 5.2 10.4 0.00 0.00 0.00 69 1013.9
20260505181558 60 195 3.5 10.4 0.00 0.00 0.00 70 1013.9
20260505181053 60 215 4.3 9.6 0.00 0.00 0.00 71 1013.9
20260505180552 60 198 4.3 9.6 0.00 0.00 0.00 71 1013.9
20260505180053 60 250 4.3 9.6 0.00 0.00 0.00 71 1013.8
20260505175554 60 209 3.5 9.6 0.00 0.00 0.00 72 1013.7
20260505175055 60 200 5.2 11.3 0.00 0.00 0.00 71 1013.8
20260505174602 60 162 5.2 11.3 0.00 0.00 0.00 72 1013.7
20260505174052 60 284 6.1 11.3 0.00 0.00 0.00 72 1013.7
20260505173553 60 278 4.3 8.7 0.00 0.00 0.00 71 1013.6
20260505173058 60 298 3.5 7.0 0.00 0.00 0.00 71 1013.6
20260505172555 60 213 2.6 8.7 0.00 0.00 0.00 71 1013.5
20260505172055 60 171 4.3 8.7 0.00 0.00 0.00 70 1013.5
20260505171554 60 252 2.6 8.7 0.00 0.00 0.00 73 1013.5
20260505171052 60 227 4.3 9.6 0.00 0.00 0.00 72 1013.4
20260505170552 60 203 4.3 9.6 0.00 0.00 0.00 71 1013.4
20260505170056 61 205 3.5 8.7 0.00 0.00 0.00 71 1013.3
20260505165556 60 256 2.6 9.6 0.00 0.00 0.00 71 1013.2
20260505165052 60 174 5.2 9.6 0.00 0.00 0.00 70 1013.2
20260505164616 61 284 3.5 7.8 0.00 0.00 0.00 70 1013.1
20260505164059 61 192 3.5 7.8 0.00 0.00 0.00 68 1013.1
20260505163555 61 213 3.5 7.8 0.00 0.00 0.00 68 1013.0
20260505163105 61 324 1.7 7.8 0.00 0.00 0.00 69 1013.0
20260505162555 61 165 2.6 7.8 0.00 0.00 0.00 69 1013.0
20260505162055 60 313 1.7 7.8 0.00 0.00 0.00 68 1013.0
20260505161615 60 182 3.5 7.8 0.00 0.00 0.00 68 1012.9
20260505161056 61 230 2.6 6.1 0.00 0.00 0.00 68 1012.9
20260505160555 61 197 0.9 6.1 0.00 0.00 0.00 69 1012.9
20260505153107 60 165 1.7 4.3 0.00 0.00 0.00 69 1012.9
20260505152552 60 283 0.9 4.3 0.00 0.00 0.00 70 1012.9
20260505152051 61 242 0.9 5.2 0.00 0.00 0.00 69 1012.7
20260505151556 61 193 0.0 5.2 0.00 0.00 0.00 69 1012.7
20260505151100 61 92 0.0 1.7 0.00 0.00 0.00 68 1012.7
20260505150556 61 0 0.0 3.5 0.00 0.00 0.00 69 1012.6
20260505140553 53 346 0.9 4.3 0.00 0.00 0.00 82 1012.5
20260505130125 53 0 0.0 0.9 0.00 0.00 0.00 83 1012.0
20260505124617 53 0 0.0 0.0 0.00 0.00 0.00 83 1012.0
20260505124052 53 0 0.0 0.9 0.00 0.00 0.00 83 1012.0
20260505123552 54 0 0.0 1.7 0.00 0.00 0.00 83 1012.0
20260505123116 54 0 0.0 2.6 0.00 0.00 0.00 82 1012.0
20260505122555 54 0 0.9 2.6 0.00 0.00 0.00 83 1012.0
20260505122056 54 0 0.0 2.6 0.00 0.00 0.00 83 1012.1
20260505121600 54 330 0.9 2.6 0.00 0.00 0.00 83 1012.0
20260505121058 55 0 0.0 2.6 0.00 0.00 0.00 83 1012.0
20260505120555 55 0 0.0 2.6 0.00 0.00 0.00 83 1012.0
20260505120118 55 315 0.0 2.6 0.00 0.00 0.00 83 1012.1
20260505115555 55 0 0.0 1.7 0.00 0.00 0.00 83 1012.1
20260505115052 56 0 0.0 1.7 0.00 0.00 0.00 83 1012.1
20260505114556 56 344 0.0 1.7 0.00 0.00 0.00 82 1012.1
20260505114055 56 0 0.0 0.9 0.00 0.00 0.00 82 1012.1
20260505113552 56 0 0.0 0.9 0.00 0.00 0.00 82 1012.0
20260505113105 56 0 0.0 2.6 0.00 0.00 0.00 82 1012.0
20260505112557 56 0 0.0 2.6 0.00 0.00 0.00 82 1012.0
20260505112056 56 266 0.0 3.5 0.00 0.00 0.00 81 1012.0
20260505111556 56 266 1.7 5.2 0.00 0.00 0.00 81 1012.0
20260505111056 56 287 0.9 5.2 0.00 0.00 0.00 81 1012.1
20260505110556 56 269 2.6 7.0 0.00 0.00 0.00 80 1012.1
20260505110116 56 250 1.7 7.0 0.00 0.00 0.00 79 1012.1
20260505102052 56 253 2.6 6.1 0.00 0.00 0.00 79 1012.2
20260505101601 56 273 3.5 6.1 0.00 0.00 0.00 79 1012.3
20260505101052 56 243 1.7 5.2 0.00 0.00 0.00 80 1012.3
20260505100559 56 288 0.9 3.5 0.00 0.00 0.00 81 1012.4
20260505100053 57 0 0.9 1.7 0.00 0.00 0.00 81 1012.2
20260505095555 57 307 0.0 0.9 0.00 0.00 0.00 80 1012.3
20260505095055 57 0 0.0 1.7 0.00 0.00 0.00 79 1012.4
20260505094556 57 0 0.0 1.7 0.00 0.00 0.00 79 1012.4
20260505094058 57 0 0.0 1.7 0.00 0.00 0.00 79 1012.4
20260505093555 57 0 0.0 0.9 0.00 0.00 0.00 77 1012.5
20260505093108 57 0 0.0 0.9 0.00 0.00 0.00 77 1012.5
20260505092556 57 0 0.0 2.6 0.00 0.00 0.00 76 1012.5
20260505092053 57 0 0.0 2.6 0.00 0.00 0.00 76 1012.7
20260505091555 57 0 0.0 1.7 0.00 0.00 0.00 75 1012.8
20260505091055 57 0 0.0 2.6 0.00 0.00 0.00 75 1012.9
20260505090553 57 0 0.0 2.6 0.00 0.00 0.00 76 1012.8
20260505090057 57 308 0.9 2.6 0.00 0.00 0.00 76 1012.8
20260505085552 57 0 0.0 3.5 0.00 0.00 0.00 77 1012.8
20260505085052 57 0 0.0 3.5 0.00 0.00 0.00 78 1012.9
20260505084556 57 0 0.0 3.5 0.00 0.00 0.00 79 1012.9
20260505084055 57 291 0.9 2.6 0.00 0.00 0.00 80 1013.1
20260505083555 57 0 0.0 2.6 0.00 0.00 0.00 82 1013.0
20260505083057 57 0 0.9 2.6 0.00 0.00 0.00 82 1013.0
20260505082556 57 342 0.9 2.6 0.00 0.00 0.00 83 1013.1
20260505082053 57 342 0.0 2.6 0.00 0.00 0.00 83 1013.1
20260505081603 57 338 0.9 2.6 0.00 0.00 0.00 83 1013.2
20260505081056 57 0 0.0 1.7 0.00 0.00 0.00 83 1013.2
20260505080556 57 0 0.0 2.6 0.00 0.00 0.00 84 1013.2
20260505080109 57 0 0.0 2.6 0.00 0.00 0.00 84 1013.3
20260505075556 57 316 0.0 1.7 0.00 0.00 0.00 85 1013.3
20260505075056 57 0 0.0 1.7 0.00 0.00 0.00 85 1013.3
20260505074556 57 0 0.0 2.6 0.00 0.00 0.00 85 1013.4
20260505074052 57 0 0.0 2.6 0.00 0.00 0.00 85 1013.4
20260505073555 57 0 0.0 0.0 0.00 0.00 0.00 85 1013.4
20260505073054 57 0 0.0 1.7 0.00 0.00 0.00 85 1013.4
20260505072551 57 0 0.0 1.7 0.00 0.00 0.00 86 1013.5
20260505072056 57 0 0.0 1.7 0.00 0.00 0.00 86 1013.6
20260505071556 57 0 0.0 1.7 0.00 0.00 0.00 86 1013.5
20260505071052 57 0 0.0 1.7 0.00 0.00 0.00 86 1013.5
20260505070559 57 294 0.0 0.9 0.00 0.00 0.00 86 1013.5
20260505070110 57 0 0.0 1.7 0.00 0.00 0.00 86 1013.5
20260505065556 57 32 0.0 2.6 0.00 0.00 0.00 87 1013.4
20260505065057 57 35 0.0 2.6 0.00 0.00 0.00 87 1013.5
20260505064556 57 19 0.9 2.6 0.00 0.00 0.00 87 1013.5
20260505064056 57 0 0.0 1.7 0.00 0.00 0.00 87 1013.6
20260505063552 57 344 0.0 1.7 0.00 0.00 0.00 87 1013.5
20260505063058 57 0 0.0 1.7 0.00 0.00 0.00 87 1013.5
20260505062553 57 0 0.0 1.7 0.00 0.00 0.00 87 1013.5
20260505062051 57 0 0.0 2.6 0.00 0.00 0.00 87 1013.5
20260505061558 57 0 0.0 2.6 0.00 0.00 0.00 87 1013.5
20260505061058 57 0 1.7 5.2 0.00 0.00 0.00 87 1013.5
20260505060556 57 270 1.7 5.2 0.00 0.00 0.00 87 1013.5
20260505060056 57 251 0.9 6.1 0.00 0.00 0.00 87 1013.5
20260505055556 57 273 2.6 6.1 0.00 0.00 0.00 87 1013.7
20260505055056 57 254 0.0 6.1 0.00 0.00 0.00 87 1013.7
20260505054558 57 0 0.9 6.1 0.00 0.00 0.00 87 1013.6
20260505054059 57 257 0.0 6.1 0.00 0.00 0.00 87 1013.7
20260505053555 57 253 0.0 5.2 0.00 0.00 0.00 87 1013.6
20260505053104 57 265 2.6 7.8 0.00 0.00 0.00 87 1013.6
20260505052556 57 275 2.6 7.8 0.00 0.00 0.00 87 1013.7
20260505052058 57 285 3.5 7.0 0.00 0.00 0.00 86 1013.7
20260505051556 57 286 2.6 7.0 0.00 0.00 0.00 86 1013.7
20260505051055 57 250 1.7 5.2 0.00 0.00 0.00 86 1013.8
20260505050556 57 267 0.9 5.2 0.00 0.00 0.00 86 1013.8
20260505041555 57 169 3.5 7.0 0.00 0.00 0.00 85 1014.0
20260505041055 57 200 2.6 7.8 0.00 0.00 0.00 85 1014.1
20260505040557 57 283 3.5 8.7 0.00 0.00 0.00 85 1013.9
20260505040105 57 272 4.3 9.6 0.00 0.00 0.00 85 1013.9
20260505035555 57 261 4.3 9.6 0.00 0.00 0.00 84 1014.0
20260505035052 58 284 6.1 9.6 0.00 0.00 0.00 84 1014.1
20260505034557 58 243 1.7 8.7 0.00 0.00 0.00 84 1014.0
20260505034057 58 269 4.3 8.7 0.00 0.00 0.00 83 1013.9
20260505033556 58 268 4.3 10.4 0.00 0.00 0.00 83 1013.8
20260505033057 58 274 5.2 10.4 0.00 0.00 0.00 82 1013.8
20260505032556 58 274 3.5 8.7 0.00 0.00 0.00 82 1013.8
20260505032055 58 180 1.7 8.7 0.00 0.00 0.00 82 1013.7
20260505031555 58 286 2.6 8.7 0.00 0.00 0.00 82 1013.7
20260505031055 58 297 2.6 8.7 0.00 0.00 0.00 82 1013.5
20260505030556 58 277 3.5 9.6 0.00 0.00 0.00 81 1013.6
20260505030104 58 290 4.3 9.6 0.00 0.00 0.00 80 1013.6
20260505025556 58 297 3.5 8.7 0.00 0.00 0.00 80 1013.5
20260505025055 58 203 2.6 8.7 0.00 0.00 0.00 80 1013.5
20260505024555 58 242 2.6 10.4 0.00 0.00 0.00 80 1013.5
20260505024052 58 240 3.5 10.4 0.00 0.00 0.00 80 1013.5
20260505023556 58 271 5.2 10.4 0.00 0.00 0.00 80 1013.4
20260505023058 58 258 5.2 10.4 0.00 0.00 0.00 80 1013.3
20260505022556 58 225 3.5 10.4 0.00 0.00 0.00 80 1013.3
20260505022056 58 261 6.1 13.9 0.00 0.00 0.00 79 1013.3
20260505021559 58 278 7.0 13.9 0.00 0.00 0.00 80 1013.4
20260505021055 58 270 6.1 13.0 0.00 0.00 0.00 80 1013.3
20260505020556 58 300 7.8 13.9 0.00 0.00 0.00 79 1013.3
20260505020057 59 254 7.0 13.9 0.00 0.00 0.00 78 1013.3
20260505015556 59 291 7.8 13.9 0.00 0.00 0.00 77 1013.4
20260505015059 59 277 7.8 14.8 0.00 0.00 0.00 77 1013.3
20260505014556 59 267 7.0 14.8 0.00 0.00 0.00 78 1013.1
20260505014055 59 211 7.8 14.8 0.00 0.00 0.00 77 1013.2
20260505013555 59 215 6.1 14.8 0.00 0.00 0.00 77 1013.3
20260505013057 59 288 7.8 13.9 0.00 0.00 0.00 78 1013.3
20260505012556 59 262 7.8 13.0 0.00 0.00 0.00 79 1013.5
20260505012055 60 276 6.1 12.2 0.00 0.00 0.00 78 1013.6
20260505011557 60 331 4.3 14.8 0.00 0.00 0.00 80 1013.6
20260505011055 59 257 7.0 14.8 0.00 0.00 0.00 79 1013.6
20260505010556 59 225 9.6 14.8 0.00 0.00 0.00 79 1013.7
20260505010103 59 261 7.8 13.9 0.00 0.00 0.00 79 1013.7
20260505005556 60 277 7.0 14.8 0.00 0.00 0.00 79 1013.7
20260505005056 59 273 7.8 14.8 0.00 0.00 0.00 79 1013.6
20260505004556 60 271 8.7 14.8 0.00 0.00 0.00 77 1013.6
20260505004055 60 227 7.0 14.8 0.00 0.00 0.00 78 1013.6
20260505003559 61 242 7.0 15.6 0.00 0.00 0.00 78 1013.6
20260505003104 61 234 7.0 15.6 0.00 0.00 0.00 77 1013.7
20260505002552 61 261 7.0 12.2 0.00 0.00 0.00 78 1013.8
20260505002053 61 218 5.2 12.2 0.00 0.00 0.00 77 1013.7
20260505001558 60 287 5.2 12.2 0.00 0.00 0.00 78 1013.8
20260505001056 60 186 6.1 14.8 0.00 0.00 0.00 79 1013.7
20260505000552 60 202 9.6 15.6 0.00 0.00 0.00 78 1013.7
20260505000108 60 298 8.7 17.4 0.00 0.00 0.00 77 1013.6
20260504235556 61 284 9.6 17.4 0.00 0.00 0.00 75 1013.5
20260504235055 61 263 7.0 13.9 0.00 0.00 0.00 75 1013.5
20260504234558 61 262 7.8 14.8 0.00 0.00 0.00 74 1013.5
20260504234056 61 280 8.7 15.6 0.00 0.00 0.00 74 1013.6
20260504233556 61 280 10.4 16.5 0.00 0.00 0.00 72 1013.6
20260504233105 61 283 7.0 16.5 0.00 0.00 0.00 74 1013.5
20260504232556 61 218 7.0 16.5 0.00 0.00 0.00 77 1013.4
20260504232055 61 239 7.8 16.5 0.00 0.00 0.00 77 1013.4
20260504231555 61 277 8.7 16.5 0.00 0.00 0.00 76 1013.5
20260504231056 61 315 7.8 15.6 0.00 0.00 0.00 76 1013.6
20260504230555 61 277 8.7 18.2 0.00 0.00 0.00 78 1013.6
20260504230057 61 255 8.7 18.2 0.00 0.00 0.00 77 1013.8
20260504225557 61 276 10.4 17.4 0.00 0.00 0.00 75 1014.0
20260504225055 62 259 7.8 13.9 0.00 0.00 0.00 74 1014.0
20260504224557 62 309 6.1 13.9 0.00 0.00 0.00 76 1013.9
20260504224057 62 266 5.2 16.5 0.00 0.00 0.00 75 1013.9
20260504223555 62 200 7.0 16.5 0.00 0.00 0.00 76 1014.1
20260504223057 62 207 9.6 18.2 0.00 0.00 0.00 76 1014.1
20260504222552 62 286 7.8 18.2 0.00 0.00 0.00 76 1014.2
20260504222056 62 200 7.8 18.2 0.00 0.00 0.00 75 1014.2
20260504221556 62 268 7.8 17.4 0.00 0.00 0.00 75 1014.2
20260504221053 62 294 9.6 16.5 0.00 0.00 0.00 75 1014.3
20260504220556 62 290 7.8 15.6 0.00 0.00 0.00 75 1014.4
20260504220118 62 251 8.7 16.5 0.00 0.00 0.00 75 1014.5
20260504215556 62 219 8.7 16.5 0.00 0.00 0.00 74 1014.3
20260504215059 62 260 7.8 15.6 0.00 0.00 0.00 74 1014.4
20260504214557 62 279 7.8 18.2 0.00 0.00 0.00 75 1014.4
20260504214056 62 252 8.7 19.1 0.00 0.00 0.00 74 1014.5
20260504213555 62 280 9.6 19.1 0.00 0.00 0.00 73 1014.6
20260504213100 62 234 7.8 18.2 0.00 0.00 0.00 74 1014.7
20260504212556 62 276 9.6 18.2 0.00 0.00 0.00 73 1014.6
20260504212056 61 257 7.8 18.2 0.00 0.00 0.00 74 1014.6
20260504211557 61 266 9.6 18.2 0.00 0.00 0.00 72 1014.7
20260504211056 62 271 9.6 14.8 0.00 0.00 0.00 71 1014.7
20260504210557 62 279 7.8 13.0 0.00 0.00 0.00 71 1014.8
20260504210056 62 267 7.0 15.6 0.00 0.00 0.00 71 1014.6
20260504205555 62 273 7.8 15.6 0.00 0.00 0.00 70 1014.5
20260504205055 62 279 9.6 15.6 0.00 0.00 0.00 68 1014.5
20260504204556 63 196 6.1 13.0 0.00 0.00 0.00 68 1014.6
20260504204055 62 221 7.0 15.6 0.00 0.00 0.00 67 1014.5
20260504203556 63 182 7.8 15.6 0.00 0.00 0.00 66 1014.6
20260504203057 63 267 7.0 13.9 0.00 0.00 0.00 66 1014.5
20260504202557 63 294 7.8 14.8 0.00 0.00 0.00 66 1014.4
20260504202052 63 230 7.8 14.8 0.00 0.00 0.00 66 1014.3
20260504201556 63 267 7.0 14.8 0.00 0.00 0.00 65 1014.4
20260504201056 62 205 7.8 14.8 0.00 0.00 0.00 64 1014.3
20260504200555 63 279 7.8 14.8 0.00 0.00 0.00 64 1014.4
20260504200100 63 260 8.7 15.6 0.00 0.00 0.00 63 1014.4
20260504195555 63 224 7.0 15.6 0.00 0.00 0.00 64 1014.3
20260504195052 63 259 7.0 15.6 0.00 0.00 0.00 64 1014.3
20260504194555 63 267 5.2 15.6 0.00 0.00 0.00 63 1014.3
20260504194056 63 284 7.0 14.8 0.00 0.00 0.00 64 1014.4
20260504193556 63 236 4.3 17.4 0.00 0.00 0.00 65 1014.5
20260504193055 63 297 7.8 17.4 0.00 0.00 0.00 65 1014.5
20260504192555 63 290 5.2 13.9 0.00 0.00 0.00 65 1014.4
20260504192055 63 278 6.1 13.9 0.00 0.00 0.00 64 1014.5
20260504191557 63 228 5.2 12.2 0.00 0.00 0.00 64 1014.5
20260504191056 63 211 4.3 13.0 0.00 0.00 0.00 64 1014.5
20260504190556 63 281 5.2 13.0 0.00 0.00 0.00 65 1014.4
20260504190107 63 257 5.2 13.0 0.00 0.00 0.00 65 1014.5